Location: Wildlife_Club
(35.6000°N, 81.4330°W)
Time: 18:54:29
(UTC-04:00)

A-11 Canister half - Pass Details

Date: 28 June 2019
Orbit: 1514 x 1686 km, 47.2° (Epoch: 12 October)

Event Time Altitude Azimuth Distance (km) Brightness Sun altitude
Rises 15:17:58 0° 301° (WNW) 4,854 11.8 63.4°
Reaches altitude 10° 15:21:13 10° 305° (NW) 3,843 11.5 62.8°
Maximum altitude 15:30:52 61° 25° (NNE) 1,747 10.0 60.9°
Drops below altitude 10° 15:40:08 10° 105° (ESE) 3,706 10.9 59.1°
Sets 15:43:12 0° 109° (ESE) 4,672 11.3 58.5°
